TimeAKST,TemperatureF,Dew PointF,Humidity,Sea Level PressureIn,VisibilityMPH,Wind Direction,Wind SpeedMPH,Gust SpeedMPH,PrecipitationIn,Events,Conditions,WindDirDegrees,DateUTC
12:30 AM,28.4,26.6,93,29.68,7.0,Calm,Calm,-,0.00,Snow,Light Snow,0,2012-12-12 09:30:00
12:47 AM,28.4,26.6,93,29.67,4.0,Calm,Calm,-,0.00,Snow,Light Snow,0,2012-12-12 09:47:00
12:53 AM,28.9,26.1,89,29.67,4.0,Calm,Calm,-,0.00,Snow,Light Snow,0,2012-12-12 09:53:00
1:53 AM,30.0,27.0,88,29.63,4.0,NNW,4.6,-,0.00,Snow,Light Snow,340,2012-12-12 10:53:00
2:13 AM,30.2,28.4,93,29.62,4.0,North,4.6,-,0.00,Snow,Light Snow,350,2012-12-12 11:13:00
3:23 AM,30.2,30.2,100,29.59,3.0,Calm,Calm,-,0.00,Snow,Light Snow,0,2012-12-12 12:23:00
3:33 AM,30.2,30.2,100,29.59,2.5,NW,3.5,-,0.00,Snow,Light Snow,320,2012-12-12 12:33:00
3:53 AM,30.9,30.0,96,29.58,2.0,Calm,Calm,-,0.00,Snow,Light Snow,0,2012-12-12 12:53:00
4:53 AM,30.9,30.0,96,29.53,3.0,Calm,Calm,-,0.00,Snow,Light Snow,0,2012-12-12 13:53:00
5:10 AM,32.0,30.2,93,29.52,2.0,Calm,Calm,-,0.00,Snow,Light Snow,0,2012-12-12 14:10:00
5:48 AM,32.0,30.2,93,29.50,3.0,NW,3.5,-,0.00,Snow,Light Snow,310,2012-12-12 14:48:00
5:53 AM,32.0,30.9,96,29.50,2.5,NNW,3.5,-,0.00,Snow,Light Snow,330,2012-12-12 14:53:00
6:03 AM,32.0,30.2,93,29.48,1.8,Calm,Calm,-,0.00,Snow,Light Snow,0,2012-12-12 15:03:00
6:26 AM,33.8,32.0,93,29.47,3.0,West,3.5,-,0.00,Snow,Light Snow,280,2012-12-12 15:26:00
6:32 AM,33.8,32.0,93,29.46,2.5,Calm,Calm,-,0.00,Snow,Light Snow,0,2012-12-12 15:32:00
6:39 AM,33.8,32.0,93,29.46,2.5,Calm,Calm,-,0.00,Snow,Light Snow,0,2012-12-12 15:39:00
6:53 AM,33.1,32.0,96,29.45,2.0,Calm,Calm,-,0.00,Snow,Light Snow,0,2012-12-12 15:53:00
7:01 AM,33.8,32.0,93,29.45,1.8,Calm,Calm,-,0.00,Snow,Light Snow,0,2012-12-12 16:01:00
7:20 AM,33.8,32.0,93,29.44,1.5,Calm,Calm,-,0.00,Snow,Light Snow,0,2012-12-12 16:20:00
7:45 AM,33.8,32.0,93,29.43,1.0,Calm,Calm,-,0.00,Snow,Light Snow,0,2012-12-12 16:45:00
7:51 AM,32.0,32.0,100,29.42,0.8,Calm,Calm,-,0.00,Snow,Light Snow,0,2012-12-12 16:51:00
7:53 AM,33.1,32.0,96,29.42,0.8,Calm,Calm,-,0.00,Snow,Light Snow,0,2012-12-12 16:53:00
8:03 AM,33.8,32.0,93,29.42,1.0,Calm,Calm,-,0.00,Snow,Light Snow,0,2012-12-12 17:03:00
8:21 AM,33.8,32.0,93,29.41,0.8,Calm,Calm,-,0.00,Snow,Light Snow,0,2012-12-12 17:21:00
8:36 AM,33.8,32.0,93,29.40,1.0,Calm,Calm,-,0.00,Snow,Light Snow,0,2012-12-12 17:36:00
8:53 AM,33.1,32.0,96,29.40,1.2,Calm,Calm,-,0.00,Snow,Light Snow,0,2012-12-12 17:53:00
9:11 AM,33.8,32.0,93,29.39,1.5,Calm,Calm,-,0.00,Snow,Light Snow,0,2012-12-12 18:11:00
9:27 AM,33.8,32.0,93,29.38,2.0,NNW,4.6,-,0.00,Snow,Light Snow,330,2012-12-12 18:27:00
9:40 AM,33.8,32.0,93,29.37,1.5,Calm,Calm,-,0.00,Snow,Light Snow,0,2012-12-12 18:40:00
9:53 AM,34.0,32.0,92,29.37,1.8,Calm,Calm,-,0.00,Snow,Light Snow,0,2012-12-12 18:53:00
10:01 AM,33.8,32.0,93,29.36,3.0,Calm,Calm,-,0.00,Snow,Light Snow,0,2012-12-12 19:01:00
10:18 AM,33.8,32.0,93,29.36,6.0,Calm,Calm,-,0.00,Snow,Light Snow,0,2012-12-12 19:18:00
10:25 AM,33.8,32.0,93,29.36,5.0,Calm,Calm,-,0.00,Snow,Light Snow,0,2012-12-12 19:25:00
10:53 AM,33.1,32.0,96,29.35,4.0,WSW,3.5,-,0.00,Snow,Light Snow,250,2012-12-12 19:53:00
11:02 AM,33.8,32.0,93,29.34,2.5,Calm,Calm,-,0.00,Snow,Light Snow,0,2012-12-12 20:02:00
11:16 AM,33.8,32.0,93,29.34,1.8,Calm,Calm,-,0.00,Snow,Light Snow,0,2012-12-12 20:16:00
11:24 AM,33.8,32.0,93,29.34,1.5,Calm,Calm,-,0.00,Snow,Light Snow,0,2012-12-12 20:24:00
11:30 AM,33.8,32.0,93,29.34,2.0,Calm,Calm,-,0.00,Snow,Light Snow,0,2012-12-12 20:30:00
11:37 AM,33.8,32.0,93,29.34,4.0,Calm,Calm,-,0.00,Snow,Light Snow,0,2012-12-12 20:37:00
11:53 AM,33.1,32.0,96,29.33,3.0,Calm,Calm,-,0.00,Snow,Light Snow,0,2012-12-12 20:53:00
12:40 PM,33.8,30.2,87,29.31,2.5,Calm,Calm,-,0.00,Snow,Light Snow,0,2012-12-12 21:40:00
12:48 PM,33.8,32.0,93,29.31,1.2,Calm,Calm,-,0.00,Snow,Light Snow,0,2012-12-12 21:48:00
12:53 PM,33.1,32.0,96,29.31,1.8,Calm,Calm,-,0.00,Snow,Light Snow,0,2012-12-12 21:53:00
12:58 PM,33.8,32.0,93,29.31,3.0,Calm,Calm,-,0.00,Snow,Light Snow,0,2012-12-12 21:58:00
1:13 PM,33.8,32.0,93,29.30,9.0,Calm,Calm,-,0.00,,Overcast,0,2012-12-12 22:13:00
1:49 PM,33.8,32.0,93,29.29,10.0,NNW,3.5,-,0.00,,Overcast,330,2012-12-12 22:49:00
1:53 PM,33.1,32.0,96,29.29,10.0,NNW,4.6,-,0.00,,Overcast,340,2012-12-12 22:53:00
2:53 PM,33.1,32.0,96,29.29,10.0,Calm,Calm,-,0.01,,Overcast,0,2012-12-12 23:53:00
3:51 PM,32.0,30.2,93,29.27,2.0,ENE,3.5,-,0.01,,Mostly Cloudy,60,2012-12-13 00:51:00
3:53 PM,32.0,30.9,96,29.27,2.0,East,3.5,-,0.01,,Mostly Cloudy,90,2012-12-13 00:53:00
4:00 PM,30.2,30.2,100,29.27,9.0,WNW,3.5,-,N/A,,Mostly Cloudy,290,2012-12-13 01:00:00
4:07 PM,32.0,32.0,100,29.27,8.0,Calm,Calm,-,N/A,,Overcast,0,2012-12-13 01:07:00
4:34 PM,30.2,30.2,100,29.27,2.5,Calm,Calm,-,N/A,,Overcast,0,2012-12-13 01:34:00
4:37 PM,32.0,30.2,93,29.27,3.0,Calm,Calm,-,N/A,,Overcast,0,2012-12-13 01:37:00
4:46 PM,30.2,30.2,100,29.27,1.8,NNE,3.5,-,N/A,,Overcast,30,2012-12-13 01:46:00
4:53 PM,30.0,28.9,96,29.27,2.0,Calm,Calm,-,N/A,,Overcast,0,2012-12-13 01:53:00
4:59 PM,30.2,28.4,93,29.27,7.0,NW,3.5,-,N/A,,Overcast,310,2012-12-13 01:59:00
5:13 PM,30.2,30.2,100,29.26,1.5,Calm,Calm,-,N/A,,Mostly Cloudy,0,2012-12-13 02:13:00
5:15 PM,28.4,28.4,100,29.26,0.8,Calm,Calm,-,N/A,,Mostly Cloudy,0,2012-12-13 02:15:00
5:21 PM,30.2,28.4,93,29.26,0.2,Calm,Calm,-,N/A,Fog,Light Freezing Fog,0,2012-12-13 02:21:00
5:31 PM,28.4,28.4,100,29.26,0.5,Calm,Calm,-,N/A,Fog,Light Freezing Fog,0,2012-12-13 02:31:00
5:53 PM,28.0,27.0,96,29.26,0.2,Calm,Calm,-,N/A,Fog,Light Freezing Fog,0,2012-12-13 02:53:00
6:25 PM,28.4,26.6,93,29.26,0.8,NW,3.5,-,N/A,,Overcast,320,2012-12-13 03:25:00
6:29 PM,28.4,26.6,93,29.26,1.0,Calm,Calm,-,N/A,,Overcast,0,2012-12-13 03:29:00
6:34 PM,26.6,26.6,100,29.26,2.5,Calm,Calm,-,N/A,,Overcast,0,2012-12-13 03:34:00
6:37 PM,26.6,26.6,100,29.26,5.0,Calm,Calm,-,N/A,,Overcast,0,2012-12-13 03:37:00
6:53 PM,26.1,25.0,96,29.27,5.0,WNW,4.6,-,N/A,,Overcast,300,2012-12-13 03:53:00
7:53 PM,25.0,24.1,96,29.26,10.0,Calm,Calm,-,N/A,,Mostly Cloudy,0,2012-12-13 04:53:00
8:53 PM,25.0,23.0,92,29.27,10.0,NE,5.8,-,N/A,,Mostly Cloudy,50,2012-12-13 05:53:00
9:53 PM,27.0,24.1,89,29.28,10.0,NNE,6.9,-,N/A,,Partly Cloudy,30,2012-12-13 06:53:00
10:53 PM,23.0,21.9,96,29.29,10.0,WNW,4.6,-,N/A,,Clear,290,2012-12-13 07:53:00
11:53 PM,25.0,23.0,92,29.29,10.0,Variable,4.6,-,N/A,,Clear,0,2012-12-13 08:53:00